Regional Weather Roundup
Issued by NWS

Home | Current Version | Previous Version | Text Only | Print | Product List | Glossary On
Versions: 1 2 3 4 5 6 7 8 9 10 11 12 13 14 15 16 17 18 19 20 21 22 23 24 25 26 27 28 29 30 31 32 33 34 35 36 37 38 39 40 41 42 43 44 45 46 47 48 49 50
000
ASUS43 KDMX 021307
RWRIA

WEATHER ROUNDUP FOR IOWA
NATIONAL WEATHER SERVICE DES MOINES IA
800 AM CDT THU OCT 02 2014

NOTE: "FAIR" INDICATES FEW OR NO CLOUDS BELOW 12,000 FEET WITH NO
SIGNIFICANT WEATHER AND/OR OBSTRUCTIONS TO VISIBILITY.

* - THESE STATIONS ARE NOT NWS STATIONS...THUS NOT UNDER NWS
QUALITY CONTROL.  THEY ALSO DO NOT REPORT WEATHER SUCH
AS PRECIPITATION OR FOG.

IAZ001>003-012>014-020>022-031>034-043>046-021400-
   NORTHWEST IOWA

CITY           SKY/WX    TMP DP  RH WIND       PRES   REMARKS
CARROLL *      FOG       61  61 100 CALM      29.80F VSB 0
CHEROKEE *     CLOUDY    54  54 100 NW13G25   29.85R
DENISON *      FOG       59  59 100 N10G16    29.80S VSB 1
LE MARS *      CLOUDY    54  54 100 N8        29.87S
ORANGE CITY *  LGT RAIN  55  52  88 N12       29.87F
SHELDON *      HVY RAIN  52  52 100 NW12      29.87F
SIOUX CITY     LGT RAIN  55  53  93 N15G23    29.85F
SPENCER        LGT RAIN  57  56  96 NE9       29.82F VSB 3/4
STORM LAKE *   FOG       59  59 100 S5        29.83S VSB 0
$$

IAZ055>058-069>071-079>083-090>094-021400-
   SOUTHWEST IOWA

CITY           SKY/WX    TMP DP  RH WIND       PRES   REMARKS
ATLANTIC *     FOG       63  63 100 E6        29.78F VSB 1/2
AUDUBON *      FOG       61  55  82 CALM      29.81F VSB 0
CLARINDA *     LGT RAIN  64  64 100 N8        29.80R VSB 1
COUNCIL BLFS * FOG       63  63 100 NW12      29.78R VSB 1/4
CRESTON *      FOG       63  63 100 E5        29.80S VSB 1
HARLAN  *      FOG       61  61 100 N6        29.82F VSB 1/4
LAMONI         CLOUDY    64  63  96 E3        29.81R FOG
RED OAK *      FOG       63  63 100 CALM      29.79F VSB 3/4
SHENANDOAH *   LGT RAIN  64  64 100 NE12      29.77F
$$

IAZ047>049-059>061-072>074-084-021400-
   CENTRAL IOWA

CITY           SKY/WX    TMP DP  RH WIND       PRES   REMARKS
AMES           FOG       63  63 100 VRB5      29.80S VSB 1
ANKENY *       CLOUDY    64  64 100 SE5       29.79S FOG
CHARITON *     FOG       64  64 100 SE5       29.81R VSB 1
DES MOINES     FOG       65  63  93 SE8       29.79R VSB 1
GRINNELL*      CLOUDY    64  63  94 E5        29.82R FOG
KNOXVILLE *    FOG       63  63 100 SE5       29.80R VSB 0
MARSHALLTOWN   FOG       62  62 100 NE3       29.81R VSB<1/4
PELLA *        FOG       63  63 100 SE3       29.83R VSB 1/4
PERRY *        FOG       63  63 100 CALM      29.79S VSB 3/4
$$

IAZ004>006-015-016-023>025-035-036-021400-
   NORTH CENTRAL IOWA

CITY           SKY/WX    TMP DP  RH WIND       PRES   REMARKS
ALGONA *       FOG       57  57 100 NE6       29.83S VSB 0
CLARION *      PTCLDY    61  61 100 E3        29.82F
ESTHERVILLE    FOG       57  57 100 N10       29.83S VSB 1/4
FORT DODGE *   CLOUDY    61  59  94 SE6       29.83R VSB 1/2
MASON CITY     FOG       58  58 100 CALM      29.85R VSB 1/4
FOREST CITY *  FOG       59  59 100 E5        29.84R VSB 0
IOWA FALLS *   FOG       63  61  94 NE3       29.82F VSB 3/4
$$

IAZ007>011-017>019-026>030-037>042-050>054-066-021400-
   NORTHEAST IOWA

CITY           SKY/WX    TMP DP  RH WIND       PRES   REMARKS
CEDAR RAPIDS   CLOUDY    63  63 100 E5        29.82R FOG
CHARLES CITY * FOG       63  61  94 NE5       29.84S VSB 1
CLINTON *      MOSUNNY   61  61 100 S3        29.86R
DECORAH *      CLOUDY    61  61 100 CALM      29.84R FOG
MONTICELLO *   CLOUDY    64  63  94 CALM      29.83R FOG
OELWEIN *      FOG       61  61 100 NE5       29.84S VSB 1/4
WATERLOO       CLOUDY    63  61  93 E3        29.82R FOG
$$

IAZ064-065-067-068-078-021400-
   EAST CENTRAL IOWA

CITY           SKY/WX    TMP DP  RH WIND       PRES   REMARKS
IOWA CITY      CLOUDY    63  62  97 SE5       29.83R FOG
MT. PLEASANT * FOG       61  61 100 CALM      29.83R VSB 3/4
MUSCATINE *    FOG       63  61  94 CALM      29.82S VSB 1
QUAD CITIES    PTSUNNY   60  59  96 CALM      29.82S FOG
$$

IAZ062-063-075>077-085>089-095>099-021400-
   SOUTHEAST IOWA

CITY           SKY/WX    TMP DP  RH WIND       PRES   REMARKS
BURLINGTON     FOG       63  63 100 S3        29.83R VSB<1/4
FAIRFIELD *      N/A     59  59 100 SE6       29.83R
FORT MADISON * FOG       64  64 100 CALM      29.84R VSB 0
KEOKUK *       FOG       63  63 100 CALM      29.83R VSB 0
OSKALOOSA *    FOG       63  63 100 SE6       29.82R VSB 1/4
CENTERVILLE *  CLOUDY    64  64 100 SE7       29.83R
OTTUMWA        FOG       63  63 100 SE6       29.80R VSB<1/4
WASHINGTON *   FOG       61  61 100 E3        29.82R VSB 0
$$

ABBREVIATIONS USED IN REMARKS
   TC - TEMPERATURES IN CELSIUS
  WCI - WIND CHILL INDEX
   HX - HEAT INDEX
  VSB - VISIBILITY
$$



USA.gov is the U.S. government's official web portal to all federal, state and local government web resources and services.